Location: Banios
(43.0451°N, 0.2335°E)
Time: 12:23:23
(UTC+00:00)

Cosmos 1908 - Pass Details

Date: 25 January 2021
Orbit: 512 x 528 km, 82.5° (Epoch: 25 February)

Event Time Altitude Azimuth Distance (km) Brightness Sun altitude
Rises 05:02:52 0° 179° (S) 2,610 6.8 -25.1°
Reaches altitude 10° 05:04:59 10° 175° (S) 1,730 5.9 -24.8°
Maximum altitude 05:08:43 61° 95° (E) 589 3.6 -24.1°
Drops below altitude 10° 05:12:30 10° 15° (NNE) 1,750 6.0 -23.4°
Sets 05:14:40 0° 12° (NNE) 2,645 6.9 -23.0°
